Chignik, AK

2:31 PM AKDT on May 25, 2017 (GMT -0800)
Chignik

Weather History for PAJC - January, 2013

Change the Weather History Date:

Friday, January 11, 2013

  Actual Average Record
Temperature  
Mean Temperature 34 °F -  
Max Temperature 37 °F 32 °F 42 °F (1999)
Min Temperature 32 °F 25 °F 10 °F (2000)
Degree Days  
Heating Degree Days 30    
Moisture  
Dew Point 27 °F    
Average Humidity 70    
Maximum Humidity 81    
Minimum Humidity 60    
Precipitation  
Precipitation 0.00 in - - ()
Sea Level Pressure  
Sea Level Pressure 29.92 in    
Wind  
Wind Speed 11 mph (SE)    
Max Wind Speed 21 mph    
Max Gust Speed 32 mph    
Visibility 10 miles    
Events      
Averages and records for this station are not official NWS values.
T = Trace of Precipitation, MM = Missing Value Source: NWS Daily Summary

Daily Weather History Graph

Daily Weather History Graph

Search for Another Location

Airport or City:

Trip Planner

Search our weather history database for the weather conditions in past years. The results will help you decide how hot, cold, wet, or windy it might be!

Date:

Astronomy

Jan. 11, 2013 Rise Set
Actual Time 10:00 AM AKST 5:23 PM AKST
Civil Twilight 9:14 AM AKST 6:09 PM AKST
Nautical Twilight 8:26 AM AKST 6:57 PM AKST
Astronomical Twilight 7:40 AM AKST 7:42 PM AKST
Moon 9:31 AM AKST (1/11) 6:09 PM AKST (1/11)
Length of Visible Light 8h 55m
Length of Day
7h 23m
New Moon, 0% of the Moon is Illuminated
Jan 11
New Moon
Jan 18
First Quarter
Jan 26
Full
Feb 3
Last Quarter
Feb 9
New

Hourly Weather History & Observations

Time (AKST) Temp. Windchill Dew Point Humidity Pressure Visibility Wind Dir Wind Speed Gust Speed Precip Events Conditions
12:16 AM 35.6 °F 28.0 °F 28.4 °F 75% 29.73 in 10.0 mi West 10.4 mph 26.5 mph N/A   Overcast
12:36 AM 35.6 °F 27.1 °F 26.6 °F 70% 29.74 in 10.0 mi West 12.7 mph 23.0 mph N/A   Overcast
12:56 AM 35.6 °F 26.2 °F 26.6 °F 70% 29.77 in 10.0 mi WNW 15.0 mph 27.6 mph N/A   Overcast
1:16 AM 35.6 °F 27.1 °F 26.6 °F 70% 29.79 in 10.0 mi WNW 12.7 mph 21.9 mph N/A   Overcast
1:36 AM 35.6 °F 25.2 °F 26.6 °F 70% 29.80 in 10.0 mi West 18.4 mph 28.8 mph N/A   Overcast
1:56 AM 35.6 °F 24.5 °F 26.6 °F 70% 29.81 in 10.0 mi West 20.7 mph 25.3 mph N/A   Overcast
2:16 AM 35.6 °F 28.0 °F 26.6 °F 70% 29.83 in 10.0 mi West 10.4 mph 19.6 mph N/A   Overcast
2:36 AM 37.4 °F 31.4 °F 24.8 °F 60% 29.84 in 10.0 mi West 8.1 mph 16.1 mph N/A   Overcast
2:56 AM 37.4 °F 27.8 °F 24.8 °F 60% 29.86 in 10.0 mi West 17.3 mph 24.2 mph N/A   Overcast
3:16 AM 37.4 °F 28.9 °F 26.6 °F 65% 29.88 in 10.0 mi West 13.8 mph 18.4 mph N/A   Overcast
3:36 AM 37.4 °F 29.3 °F 24.8 °F 60% 29.89 in 10.0 mi West 12.7 mph 18.4 mph N/A   Overcast
3:56 AM 37.4 °F 28.5 °F 24.8 °F 60% 29.91 in 10.0 mi West 15.0 mph - N/A   Overcast
4:16 AM 37.4 °F 28.9 °F 26.6 °F 65% 29.92 in 10.0 mi WSW 13.8 mph 19.6 mph N/A   Overcast
4:36 AM 37.4 °F 28.9 °F 24.8 °F 60% 29.93 in 10.0 mi WSW 13.8 mph 19.6 mph N/A   Overcast
4:56 AM 37.4 °F 30.3 °F 24.8 °F 60% 29.94 in 10.0 mi West 10.4 mph - N/A   Overcast
5:16 AM 37.4 °F 30.3 °F 24.8 °F 60% 29.94 in 10.0 mi West 10.4 mph - N/A   Overcast
5:36 AM 35.6 °F 28.0 °F 24.8 °F 65% 29.95 in 10.0 mi West 10.4 mph - N/A   Overcast
5:56 AM 35.6 °F 28.6 °F 24.8 °F 65% 29.96 in 10.0 mi West 9.2 mph 16.1 mph N/A   Scattered Clouds
6:16 AM 35.6 °F 28.6 °F 24.8 °F 65% 29.96 in 10.0 mi West 9.2 mph 18.4 mph N/A   Clear
6:36 AM 35.6 °F 28.6 °F 24.8 °F 65% 29.97 in 10.0 mi West 9.2 mph - N/A   Clear
6:56 AM 35.6 °F 30.7 °F 24.8 °F 65% 29.99 in 10.0 mi West 5.8 mph - N/A   Partly Cloudy
7:16 AM 35.6 °F 29.9 °F 24.8 °F 65% 30.01 in 10.0 mi NW 6.9 mph - N/A   Partly Cloudy
7:36 AM 35.6 °F 31.7 °F 24.8 °F 65% 30.01 in 10.0 mi WNW 4.6 mph - N/A   Clear
7:56 AM 33.8 °F 29.6 °F 24.8 °F 70% 30.02 in 10.0 mi NE 4.6 mph - N/A   Clear
8:16 AM 33.8 °F 26.4 °F 24.8 °F 70% 30.03 in 10.0 mi WSW 9.2 mph - N/A   Clear
8:36 AM 33.8 °F 27.7 °F 24.8 °F 70% 30.03 in 10.0 mi WSW 6.9 mph - N/A   Clear
8:56 AM 33.8 °F - 24.8 °F 70% 30.03 in 10.0 mi Calm Calm - N/A   Clear
9:16 AM 32.0 °F 27.5 °F 23.0 °F 69% 30.04 in 10.0 mi ESE 4.6 mph - N/A   Clear
9:36 AM 33.8 °F 29.6 °F 23.0 °F 65% 30.05 in 10.0 mi SE 4.6 mph - N/A   Clear
9:56 AM 32.0 °F - 23.0 °F 69% 30.05 in 10.0 mi Calm Calm - N/A   Clear
10:16 AM 32.0 °F 27.5 °F 21.2 °F 64% 30.05 in 10.0 mi SSE 4.6 mph - N/A   Clear
10:36 AM 32.0 °F - 21.2 °F 64% 30.04 in 10.0 mi Calm Calm - N/A   Clear
10:56 AM 33.8 °F 29.6 °F 21.2 °F 60% 30.05 in 10.0 mi ENE 4.6 mph - N/A   Clear
11:16 AM 32.0 °F 26.4 °F 24.8 °F 75% 30.05 in 10.0 mi NE 5.8 mph - N/A   Clear
11:36 AM 33.8 °F 29.6 °F 26.6 °F 75% 30.05 in 10.0 mi NE 4.6 mph - N/A   Clear
11:56 AM 33.8 °F 28.6 °F 24.8 °F 70% 30.05 in 10.0 mi NNW 5.8 mph - N/A   Clear
12:16 PM 33.8 °F 29.6 °F 26.6 °F 75% 30.05 in 10.0 mi East 4.6 mph - N/A   Clear
12:36 PM 33.8 °F - 26.6 °F 75% 30.06 in 10.0 mi Calm Calm - N/A   Clear
12:56 PM 33.8 °F - 26.6 °F 75% 30.05 in 10.0 mi Calm Calm - N/A   Clear
1:16 PM 33.8 °F - 26.6 °F 75% 30.03 in 10.0 mi Calm Calm - N/A   Clear
1:36 PM 33.8 °F 30.8 °F 26.6 °F 75% 30.02 in 10.0 mi West 3.5 mph - N/A   Clear
1:56 PM 33.8 °F 29.6 °F 26.6 °F 75% 30.01 in 10.0 mi East 4.6 mph - N/A   Clear
2:16 PM 33.8 °F 30.8 °F 24.8 °F 70% 30.00 in 10.0 mi East 3.5 mph - N/A   Clear
2:36 PM 35.6 °F 30.7 °F 24.8 °F 65% 30.00 in 10.0 mi East 5.8 mph - N/A   Clear
2:56 PM 35.6 °F 28.0 °F 26.6 °F 70% 30.00 in 10.0 mi ESE 10.4 mph - N/A   Clear
3:16 PM 35.6 °F 28.6 °F 28.4 °F 75% 29.99 in 10.0 mi East 9.2 mph - N/A   Clear
3:36 PM 35.6 °F 29.9 °F 26.6 °F 70% 30.00 in 10.0 mi ESE 6.9 mph - N/A   Scattered Clouds
3:56 PM 35.6 °F 29.9 °F 26.6 °F 70% 29.99 in 10.0 mi ESE 6.9 mph - N/A   Mostly Cloudy
4:16 PM 35.6 °F 29.2 °F 26.6 °F 70% 29.99 in 10.0 mi ESE 8.1 mph - N/A   Mostly Cloudy
4:36 PM 35.6 °F 29.2 °F 26.6 °F 70% 29.97 in 10.0 mi ESE 8.1 mph - N/A   Scattered Clouds
4:56 PM 35.6 °F 28.6 °F 26.6 °F 70% 29.95 in 10.0 mi ESE 9.2 mph - N/A   Mostly Cloudy
5:16 PM 35.6 °F 29.2 °F 26.6 °F 70% 29.94 in 10.0 mi ESE 8.1 mph 16.1 mph N/A   Mostly Cloudy
5:36 PM 35.6 °F 27.1 °F 26.6 °F 70% 29.91 in 10.0 mi East 12.7 mph 18.4 mph N/A   Overcast
5:56 PM 35.6 °F 28.0 °F 28.4 °F 75% 29.91 in 10.0 mi ESE 10.4 mph 18.4 mph N/A   Overcast
6:16 PM 37.4 °F 29.3 °F 28.4 °F 70% 29.89 in 10.0 mi ESE 12.7 mph 20.7 mph N/A   Overcast
6:36 PM 37.4 °F 29.3 °F 28.4 °F 70% 29.89 in 10.0 mi ESE 12.7 mph 19.6 mph N/A   Overcast
6:56 PM 37.4 °F 29.3 °F 28.4 °F 70% 29.87 in 10.0 mi ESE 12.7 mph 18.4 mph N/A   Overcast
7:16 PM 37.4 °F 28.2 °F 30.2 °F 75% 29.87 in 10.0 mi ESE 16.1 mph 20.7 mph N/A   Overcast
7:36 PM 37.4 °F 28.9 °F 28.4 °F 70% 29.86 in 10.0 mi ESE 13.8 mph 24.2 mph N/A   Overcast
7:56 PM 37.4 °F 27.5 °F 28.4 °F 70% 29.85 in 10.0 mi SE 18.4 mph 27.6 mph N/A   Overcast
8:16 PM 37.4 °F 27.8 °F 28.4 °F 70% 29.84 in 10.0 mi ESE 17.3 mph 25.3 mph N/A   Overcast
8:36 PM 37.4 °F 28.9 °F 28.4 °F 70% 29.83 in 10.0 mi ESE 13.8 mph 25.3 mph N/A   Overcast
8:56 PM 37.4 °F 28.2 °F 28.4 °F 70% 29.84 in 10.0 mi ESE 16.1 mph 24.2 mph N/A   Overcast
9:16 PM 37.4 °F 27.5 °F 30.2 °F 75% 29.80 in 10.0 mi ESE 18.4 mph 27.6 mph N/A   Overcast
9:36 PM 37.4 °F 28.2 °F 30.2 °F 75% 29.78 in 10.0 mi ESE 16.1 mph 26.5 mph N/A   Overcast
9:56 PM 37.4 °F 28.5 °F 30.2 °F 75% 29.75 in 10.0 mi SE 15.0 mph 26.5 mph N/A   Overcast
10:16 PM 37.4 °F 28.9 °F 30.2 °F 75% 29.76 in 9.0 mi SE 13.8 mph 32.2 mph N/A   Overcast
10:36 PM 35.6 °F 24.5 °F 30.2 °F 81% 29.70 in 6.0 mi SE 20.7 mph 26.5 mph N/A   Overcast
10:56 PM 37.4 °F 26.9 °F 30.2 °F 75% 29.67 in 5.0 mi SE 20.7 mph 29.9 mph N/A   Overcast
11:16 PM 37.4 °F 26.9 °F 32.0 °F 81% 29.70 in 4.0 mi SE 20.7 mph 26.5 mph N/A   Overcast
11:36 PM 37.4 °F 28.2 °F 32.0 °F 81% 29.69 in 4.0 mi ESE 16.1 mph 26.5 mph N/A   Overcast
11:56 PM 37.4 °F 29.8 °F 32.0 °F 81% 29.70 in 7.0 mi ESE 11.5 mph 24.2 mph N/A   Mostly Cloudy